Regional Weather Roundup
Issued by NWS

Home | Current Version | Previous Version | Graphics & Text | Print | Product List | Glossary On
Versions: 1 2 3 4 5 6 7 8 9 10 11 12 13 14 15 16 17 18 19 20 21 22 23 24 25 26 27 28 29 30 31 32 33 34 35 36 37 38 39 40 41 42 43 44 45 46 47 48 49 50
000
ASUS45 KABQ 050801
RWRNM
NEW MEXICO REGIONAL WEATHER ROUNDUP
NATIONAL WEATHER SERVICE ALBUQUERQUE NM
200 AM MDT THU MAY 05 2016

NOTE: "FAIR" MEANS FEW OR NO CLOUDS BELOW 12,000 FEET AGL WITH NO
       SIGNIFICANT WEATHER OR OBSTRUCTIONS TO VISION.

      THIS PRODUCT IS RELEASED AS TWO VERSIONS.  ONE VERSION NEAR
      THE TOP OF THE HOUR CONTAINING PRELIMINARY DATA FROM ALBUQUERQUE
      AND OTHER STATIONS.  A FINAL VERSION WITH ADDITIONAL DATA IS
      ISSUED ABOUT 10 MINUTES AFTER THE HOUR.

NMZ501-503-504-510>518-050900-
NORTHWEST PLATEAU/NORTHCENTRAL MOUNTAINS

CITY           SKY/WX    TMP DP  RH WIND       PRES   REMARKS
FARMINGTON     FAIR      51  30  44 NE9       30.15R
SANTA FE       FAIR      53  20  27 E5        30.25F
TAOS           FAIR      37  25  60 N3        30.30S

$$
NMZ402-403-502-505>509-050900-
WESTCENTRAL MOUNTAINS/SOUTHWEST MOUNTAINS

CITY           SKY/WX    TMP DP  RH WIND       PRES   REMARKS
GALLUP         FAIR      58  26  29 SE15      30.19S
GRANTS         FAIR      44  29  55 SE3       30.24F
SILVER CITY      N/A     57  19  23 S3        30.20R

$$
NMZ407-409-411-412-050900-
SOUTHERN DESERTS

CITY           SKY/WX    TMP DP  RH WIND       PRES   REMARKS
LORDSBURG      FAIR      63  23  22 SE14      30.08S
DEMING         FAIR      63  23  21 NW3       30.12S
HOLLOMAN AFB   FAIR      54  18  24 NW9       30.13S
ALAMOGORDO     FAIR      57  18  21 NW10      30.14S
T OR C         FAIR      60  23  24 CALM      30.15F

$$
NMZ519>523-050900-
CENTRAL VALLEYS/CENTRAL HIGHLANDS

CITY           SKY/WX    TMP DP  RH WIND       PRES   REMARKS
ALBUQUERQUE    FAIR      61  21  21 CALM      30.19F
DOUBLE EAGLE   FAIR      51  25  36 S3        30.22F
CLINES CORNERS FAIR      47  19  33 S12       30.28F
BELEN          FAIR      52  20  29 SE3       30.18F
SOCORRO        NOT AVBL

$$
NMZ524>526-539-540-050900-
SOUTHCENTRAL MOUNTAINS

CITY           SKY/WX    TMP DP  RH WIND       PRES   REMARKS
RUIDOSO        NOT AVBL

$$
NMZ527>531-050900-
NORTHEAST HIGHLANDS/NORTHEAST PLAINS

CITY           SKY/WX    TMP DP  RH WIND       PRES   REMARKS
LAS VEGAS      FAIR      44  24  45 S12       30.28F
RATON          FAIR      44  30  57 N8        30.23F
CLAYTON        FAIR      52  35  52 W9        30.17F

$$
NMZ532>537-050900-
EASTCENTRAL PLAINS

CITY           SKY/WX    TMP DP  RH WIND       PRES   REMARKS
TUCUMCARI      FAIR      48  35  60 W7        30.13F
CANNON AFB     CLEAR     57  29  34 S2        30.17F
CLOVIS AIRPORT FAIR      54  30  40 SW7       30.18F

$$
NMZ028-029-538-050900-
SOUTHEAST PLAINS

CITY           SKY/WX    TMP DP  RH WIND       PRES   REMARKS
ROSWELL        FAIR      57  25  29 N5        30.13F
ARTESIA        FAIR      55  25  30 VRB7      30.14F
CARLSBAD       FAIR      54  24  31 W7        30.10F
HOBBS          FAIR      48  27  43 CALM      30.17S


$$



USA.gov is the U.S. government's official web portal to all federal, state and local government web resources and services.